Hourly Weather Hellin

Today, 3 July, Friday

Time Temperature Precipitation Wind Pressure Humidity
00:00 +26°C° 0 mm 2 mps 710 mmHg 33%
01:00 +25°C° 0 mm 2 mps 710 mmHg 37%
02:00 +24°C° 0 mm 3 mps 710 mmHg 41%
03:00 +22°C° 0 mm 3 mps 710 mmHg 45%
04:00 +22°C° 0 mm 3 mps 710 mmHg 50%
05:00 +22°C° 0 mm 3 mps 711 mmHg 55%
06:00 +23°C° 0 mm 2 mps 711 mmHg 55%
07:00 +25°C° 0 mm 3 mps 711 mmHg 50%
08:00 +26°C° 0 mm 3 mps 712 mmHg 44%
09:00 +28°C° 0 mm 3 mps 712 mmHg 39%
10:00 +29°C° 0 mm 3 mps 712 mmHg 35%
11:00 +30°C° 0 mm 2 mps 713 mmHg 31%
12:00 +31°C° 0 mm 2 mps 713 mmHg 28%
13:00 +33°C° 0 mm 3 mps 713 mmHg 29%
14:00 +33°C° 0 mm 5 mps 712 mmHg 30%
15:00 +34°C° 0 mm 6 mps 712 mmHg 32%
16:00 +32°C° 0.1 mm 6 mps 712 mmHg 42%
17:00 +29°C° 0.1 mm 7 mps 712 mmHg 52%
18:00 +27°C° 0.1 mm 8 mps 712 mmHg 63%
19:00 +26°C° 0 mm 7 mps 712 mmHg 68%
20:00 +23°C° 0 mm 5 mps 712 mmHg 74%
21:00 +22°C° 0 mm 4 mps 713 mmHg 80%
22:00 +22°C° 0 mm 4 mps 713 mmHg 82%
23:00 +21°C° 0 mm 4 mps 713 mmHg 84%

Tomorrow, 4 July, Saturday

Time Temperature Precipitation Wind Pressure Humidity
00:00 +21°C° 0 mm 3 mps 713 mmHg 86%
01:00 +21°C° 0 mm 3 mps 713 mmHg 87%
02:00 +21°C° 0 mm 2 mps 713 mmHg 88%
03:00 +20°C° 0 mm 2 mps 713 mmHg 89%
04:00 +20°C° 0 mm 2 mps 713 mmHg 88%
05:00 +21°C° 0 mm 1 mps 713 mmHg 87%
06:00 +21°C° 0 mm 1 mps 713 mmHg 86%
07:00 +23°C° 0 mm 1 mps 713 mmHg 77%
08:00 +25°C° 0 mm 1 mps 713 mmHg 67%
09:00 +26°C° 0 mm 2 mps 714 mmHg 58%
10:00 +28°C° 0 mm 2 mps 714 mmHg 49%
11:00 +30°C° 0 mm 3 mps 714 mmHg 40%
12:00 +33°C° 0 mm 3 mps 714 mmHg 31%
13:00 +34°C° 0 mm 3 mps 714 mmHg 28%
14:00 +35°C° 0 mm 4 mps 714 mmHg 25%
15:00 +36°C° 0 mm 4 mps 714 mmHg 23%
16:00 +35°C° 0 mm 5 mps 713 mmHg 29%
17:00 +33°C° 0 mm 6 mps 713 mmHg 35%
18:00 +32°C° 0 mm 7 mps 713 mmHg 41%
19:00 +29°C° 0 mm 6 mps 713 mmHg 46%
20:00 +27°C° 0 mm 4 mps 713 mmHg 52%
21:00 +26°C° 0 mm 3 mps 714 mmHg 58%
22:00 +25°C° 0 mm 2 mps 714 mmHg 62%
23:00 +24°C° 0 mm 2 mps 713 mmHg 66%

Day after tomorrow, 5 July, Sunday

Time Temperature Precipitation Wind Pressure Humidity
00:00 +23°C° 0 mm 2 mps 713 mmHg 70%
01:00 +22°C° 0 mm 1 mps 713 mmHg 73%
02:00 +22°C° 0 mm 1 mps 713 mmHg 76%
03:00 +21°C° 0 mm 1 mps 713 mmHg 80%
04:00 +21°C° 0 mm 1 mps 713 mmHg 78%
05:00 +22°C° 0 mm 1 mps 713 mmHg 75%
06:00 +22°C° 0 mm 1 mps 713 mmHg 73%
07:00 +24°C° 0 mm 1 mps 713 mmHg 63%
08:00 +26°C° 0 mm 2 mps 713 mmHg 52%
09:00 +28°C° 0 mm 2 mps 713 mmHg 42%
10:00 +30°C° 0 mm 3 mps 713 mmHg 36%
11:00 +33°C° 0 mm 4 mps 713 mmHg 31%
12:00 +35°C° 0 mm 5 mps 713 mmHg 25%
13:00 +35°C° 0 mm 5 mps 713 mmHg 24%
14:00 +36°C° 0 mm 5 mps 713 mmHg 23%
15:00 +37°C° 0 mm 5 mps 713 mmHg 22%
16:00 +35°C° 0 mm 6 mps 712 mmHg 26%
17:00 +34°C° 0 mm 6 mps 712 mmHg 30%
18:00 +33°C° 0 mm 6 mps 711 mmHg 34%
19:00 +30°C° 0 mm 5 mps 711 mmHg 40%
20:00 +28°C° 0 mm 4 mps 711 mmHg 46%
21:00 +26°C° 0 mm 2 mps 712 mmHg 52%
22:00 +25°C° 0 mm 2 mps 712 mmHg 55%
23:00 +24°C° 0 mm 2 mps 711 mmHg 58%

6 July, Monday

Time Temperature Precipitation Wind Pressure Humidity
00:00 +24°C° 0 mm 2 mps 711 mmHg 61%
01:00 +23°C° 0 mm 1 mps 711 mmHg 64%
02:00 +22°C° 0 mm 1 mps 710 mmHg 66%
03:00 +20°C° 0 mm 0 mps 710 mmHg 69%
04:00 +20°C° 0 mm 0 mps 710 mmHg 65%
05:00 +23°C° 0 mm 1 mps 710 mmHg 62%
06:00 +24°C° 0 mm 1 mps 710 mmHg 58%
07:00 +26°C° 0 mm 1 mps 711 mmHg 49%
08:00 +28°C° 0 mm 2 mps 711 mmHg 41%
09:00 +30°C° 0 mm 2 mps 711 mmHg 32%
10:00 +33°C° 0 mm 3 mps 711 mmHg 28%
11:00 +34°C° 0 mm 4 mps 711 mmHg 24%
12:00 +36°C° 0 mm 5 mps 711 mmHg 21%
13:00 +36°C° 0 mm 6 mps 710 mmHg 20%
14:00 +38°C° 0 mm 6 mps 710 mmHg 20%
15:00 +38°C° 0 mm 7 mps 710 mmHg 19%
16:00 +36°C° 0 mm 7 mps 710 mmHg 22%
17:00 +34°C° 0 mm 7 mps 709 mmHg 25%
18:00 +33°C° 0 mm 7 mps 709 mmHg 28%
19:00 +30°C° 0 mm 6 mps 709 mmHg 32%
20:00 +28°C° 0 mm 4 mps 709 mmHg 36%
21:00 +26°C° 0 mm 3 mps 709 mmHg 41%
22:00 +25°C° 0 mm 3 mps 709 mmHg 43%
23:00 +24°C° 0 mm 2 mps 709 mmHg 46%

7 July, Tuesday

Time Temperature Precipitation Wind Pressure Humidity
00:00 +24°C° 0 mm 2 mps 709 mmHg 48%
01:00 +23°C° 0 mm 1 mps 709 mmHg 50%
02:00 +22°C° 0 mm 1 mps 708 mmHg 52%
03:00 +22°C° 0 mm 1 mps 708 mmHg 54%
04:00 +22°C° 0 mm 1 mps 708 mmHg 52%
05:00 +23°C° 0 mm 1 mps 708 mmHg 50%
06:00 +23°C° 0 mm 1 mps 708 mmHg 48%
07:00 +25°C° 0 mm 1 mps 709 mmHg 43%
08:00 +27°C° 0 mm 2 mps 709 mmHg 37%
09:00 +29°C° 0 mm 3 mps 709 mmHg 32%
10:00 +31°C° 0 mm 3 mps 710 mmHg 29%
11:00 +33°C° 0 mm 4 mps 710 mmHg 27%
12:00 +35°C° 0 mm 5 mps 710 mmHg 24%
13:00 +36°C° 0 mm 5 mps 710 mmHg 25%
14:00 +36°C° 0 mm 6 mps 709 mmHg 25%
15:00 +36°C° 0 mm 6 mps 709 mmHg 25%
16:00 +35°C° 0 mm 6 mps 709 mmHg 30%
17:00 +33°C° 0 mm 7 mps 709 mmHg 35%
18:00 +32°C° 0 mm 7 mps 708 mmHg 40%
19:00 +29°C° 0 mm 6 mps 709 mmHg 49%
20:00 +27°C° 0 mm 5 mps 709 mmHg 58%
21:00 +25°C° 0 mm 3 mps 709 mmHg 67%
22:00 +24°C° 0 mm 3 mps 709 mmHg 72%
23:00 +22°C° 0 mm 3 mps 709 mmHg 77%

8 July, Wednesday

Time Temperature Precipitation Wind Pressure Humidity
00:00 +21°C° 0 mm 2 mps 709 mmHg 83%
01:00 +21°C° 0 mm 2 mps 709 mmHg 85%
02:00 +20°C° 0 mm 2 mps 708 mmHg 87%
03:00 +20°C° 0 mm 2 mps 708 mmHg 90%
04:00 +20°C° 0 mm 2 mps 709 mmHg 87%
05:00 +20°C° 0 mm 3 mps 709 mmHg 84%
06:00 +20°C° 0 mm 3 mps 709 mmHg 82%
07:00 +22°C° 0 mm 4 mps 709 mmHg 70%
08:00 +25°C° 0 mm 5 mps 710 mmHg 58%
09:00 +27°C° 0 mm 6 mps 710 mmHg 46%
10:00 +29°C° 0 mm 7 mps 710 mmHg 43%
11:00 +30°C° 0 mm 7 mps 710 mmHg 39%
12:00 +33°C° 0 mm 7 mps 710 mmHg 35%
13:00 +33°C° 0 mm 7 mps 710 mmHg 35%
14:00 +33°C° 0 mm 8 mps 710 mmHg 35%
15:00 +33°C° 0 mm 8 mps 710 mmHg 35%
16:00 +30°C° 0 mm 7 mps 709 mmHg 38%
17:00 +29°C° 0 mm 7 mps 709 mmHg 41%
18:00 +28°C° 0 mm 7 mps 709 mmHg 44%
19:00 +26°C° 0.2 mm 5 mps 709 mmHg 51%
20:00 +23°C° 0.2 mm 4 mps 709 mmHg 57%
21:00 +22°C° 0.2 mm 3 mps 710 mmHg 63%
22:00 +21°C° 0.1 mm 3 mps 710 mmHg 65%
23:00 +21°C° 0.1 mm 2 mps 710 mmHg 67%
Show more